Weather History for Akron Canton, OH

Change the Weather History Date:

Thursday, October 10, 2013

  Actual Average Record
Temperature  
Mean Temperature 57 °F 54 °F  
Max Temperature 70 °F 63 °F 85 °F (1949)
Min Temperature 43 °F 44 °F 29 °F (1897)
Degree Days  
Heating Degree Days 8 12  
Month to date heating degree days 37 102  
Since 1 July heating degree days 152 241  
Cooling Degree Days 0 0  
Month to date cooling degree days 28 3  
Year to date cooling degree days 829 649  
Growing Degree Days 8 (Base 50)    
Moisture  
Dew Point 42 °F    
Average Humidity 59    
Maximum Humidity 86    
Minimum Humidity 31    
Precipitation  
Precipitation 0.00 in 0.10 in 0.67 in (1991)
Month to date precipitation 3.74 0.93  
Year to date precipitation 33.71 31.58  
Snow  
Snow 0.00 in 0.00 in - ()
Month to date snowfall 0.0 0.0  
Since 1 July snowfall 0.0 0.0  
Since 1 September snowfall 0.0 0.0  
Snow Depth 0.00 in    
Sea Level Pressure  
Sea Level Pressure 30.18 in    
Wind  
Wind Speed 5 mph (ENE)    
Max Wind Speed 8 mph    
Max Gust Speed 12 mph    
Visibility 10 miles    
Events      
T = Trace of Precipitation, MM = Missing Value Source: NWS Daily Summary

Daily Weather History Graph

Daily Weather History Graph

Search for Another Location

Airport:

Trip Planner

Search our weather history database for the weather conditions in past years. The results will help you decide how hot, cold, wet, or windy it might be!

Date:

Astronomy

Oct. 10, 2013 Rise Set
Actual Time 7:32 AM EDT 6:52 PM EDT
Civil Twilight 7:04 AM EDT 7:20 PM EDT
Nautical Twilight 6:32 AM EDT 7:51 PM EDT
Astronomical Twilight 6:00 AM EDT 8:23 PM EDT
Moon 1:24 PM EDT (10/10) 11:27 PM EDT (10/10)
Length of Visible Light 12h 15m
Length of Day
11h 20m
Waxing Crescent, 35% of the Moon is Illuminated
Oct 10
Waxing Crescent
Oct 11
First Quarter
Oct 18
Full
Oct 26
Last Quarter
Nov 3
New

Hourly Weather History & Observations

Time (EDT) Temp. Windchill Dew Point Humidity Pressure Visibility Wind Dir Wind Speed Gust Speed Precip Events Conditions
12:51 AM 52.0 °F - 39.9 °F 63% 30.22 in 10.0 mi East 4.6 mph - N/A   Clear
1:51 AM 50.0 °F - 39.9 °F 68% 30.21 in 10.0 mi East 4.6 mph - N/A   Clear
2:51 AM 50.0 °F - 39.9 °F 68% 30.20 in 10.0 mi East 6.9 mph - N/A   Clear
3:51 AM 48.9 °F - 39.0 °F 69% 30.19 in 10.0 mi East 4.6 mph - N/A   Clear
4:51 AM 48.0 °F - 39.0 °F 71% 30.21 in 10.0 mi NE 3.5 mph - N/A   Clear
5:51 AM 46.0 °F 43.9 °F 39.0 °F 76% 30.21 in 10.0 mi East 4.6 mph - N/A   Clear
6:51 AM 46.9 °F - 39.0 °F 74% 30.22 in 10.0 mi Calm Calm - N/A   Clear
7:51 AM 46.0 °F - 39.0 °F 76% 30.23 in 10.0 mi Calm Calm - N/A   Partly Cloudy
8:51 AM 46.0 °F 43.9 °F 39.9 °F 79% 30.23 in 10.0 mi NE 4.6 mph - N/A   Scattered Clouds
9:51 AM 48.0 °F - 41.0 °F 77% 30.24 in 10.0 mi NNE 4.6 mph - N/A   Mostly Cloudy
10:51 AM 50.0 °F - 43.0 °F 77% 30.23 in 10.0 mi ENE 5.8 mph - N/A   Mostly Cloudy
11:51 AM 54.0 °F - 46.0 °F 75% 30.21 in 10.0 mi NE 3.5 mph - N/A   Mostly Cloudy
12:51 PM 61.0 °F - 46.0 °F 58% 30.20 in 10.0 mi Variable 3.5 mph - N/A   Mostly Cloudy
1:51 PM 64.0 °F - 45.0 °F 50% 30.18 in 10.0 mi ENE 3.5 mph - N/A   Mostly Cloudy
2:51 PM 69.1 °F - 41.0 °F 36% 30.16 in 10.0 mi ENE 5.8 mph - N/A   Mostly Cloudy
3:51 PM 69.1 °F - 42.1 °F 38% 30.14 in 10.0 mi ENE 3.5 mph - N/A   Mostly Cloudy
4:51 PM 69.1 °F - 37.0 °F 31% 30.13 in 10.0 mi ENE 5.8 mph - N/A   Mostly Cloudy
5:51 PM 68.0 °F - 39.9 °F 36% 30.14 in 10.0 mi NE 5.8 mph - N/A   Mostly Cloudy
6:51 PM 61.0 °F - 42.1 °F 50% 30.14 in 10.0 mi NNE 4.6 mph - N/A   Mostly Cloudy
7:51 PM 55.9 °F - 45.0 °F 67% 30.14 in 10.0 mi North 5.8 mph - N/A   Mostly Cloudy
8:51 PM 54.0 °F - 46.9 °F 77% 30.13 in 10.0 mi NNE 6.9 mph - N/A   Mostly Cloudy
9:51 PM 51.1 °F - 46.0 °F 83% 30.14 in 10.0 mi NNE 5.8 mph - N/A   Mostly Cloudy
10:51 PM 52.0 °F - 46.9 °F 83% 30.14 in 10.0 mi NE 6.9 mph - N/A   Mostly Cloudy
11:51 PM 50.0 °F - 46.0 °F 86% 30.12 in 10.0 mi NE 6.9 mph - N/A   Scattered Clouds